Tracking 30986 objects as of 10-Jul-2025
HD Live streaming from Space Station
objects crossing your sky now

FENGYUN 1C DEB

Track FENGYUN 1C DEB now!
10-day predictions


NORAD ID: 32304
Int'l Code: 1999-025CWV
Perigee: 701.1 km
Apogee: 774.7 km
Inclination: 99.4 °
Period: 99.4 minutes
Semi major axis: 7108 km
RCS: 0.0093 m2 (small)
Launch date: May 10, 1999
Source: People's Republic of China (PRC)
Launch site: Taiyaun Space Center, China (TSC)

Note: This is SATELLITE DEBRIS
Your satellite tracking list
Your tracking list is empty




NASA's NSSDC Master Catalog

Two Line Element Set (TLE):
1 32304U 99025CWV 25189.07013358  .00002714  00000-0  72652-3 0  9998
2 32304  99.3810 125.9834 0051755 335.3952  24.4770 14.48430703539891
Source of the keplerian elements: AFSPC